Total_Precipitation_Accumulation
0.21 0.33 0.35 0.32 0.29 0.25 0.21 0.20 0.35 0.44 0.62 0.73 0.78 0.88 1.10 1.24 1.19 1.08 0.92 0.86 0.88 0.89 0.96 1.01 1.15 1.30 1.24 1.28 1.35 1.52 1.73 1.83 1.99 1.98 1.94 1.89 1.93 1.97 1.96 2.00 1.94 2.00 2.08 2.08
0.24 0.28 0.33 0.36 0.34 0.29 0.24 0.21 0.27 0.41 0.65 0.87 0.87 0.89 1.05 1.07 0.94 0.80 0.72 0.61 0.58 0.77 0.86 0.82 0.86 0.98 0.96 1.01 1.17 1.35 1.45 1.57 1.82 1.94 1.95 1.92 1.98 2.12 2.14 2.09 2.05 2.07 2.02 2.05
0.37 0.34 0.34 0.44 0.43 0.37 0.30 0.29 0.30 0.45 0.69 0.96 0.84 0.74 0.85 0.91 0.86 0.79 0.79 0.61 0.56 0.64 0.79 0.79 0.80 0.83 0.95 1.08 1.22 1.33 1.48 1.63 1.84 1.96 2.05 2.09 2.07 2.17 2.11 2.12 2.18 2.12 2.03 2.03
0.44 0.55 0.65 0.49 0.40 0.41 0.41 0.43 0.39 0.54 0.59 0.75 0.74 0.77 0.89 0.89 0.88 0.74 0.73 0.68 0.64 0.63 0.63 0.67 0.75 0.82 0.98 1.26 1.51 1.57 1.72 1.92 2.04 2.18 2.14 2.12 2.12 2.15 2.24 2.32 2.36 2.34 2.27 2.19
0.60 0.73 0.65 0.56 0.41 0.48 0.54 0.72 0.74 0.84 0.82 0.77 0.73 0.85 0.95 0.81 0.74 0.76 0.67 0.63 0.68 0.73 0.74 0.80 0.86 0.90 1.07 1.30 1.62 1.81 1.87 1.97 2.13 2.24 2.28 2.29 2.29 2.27 2.39 2.52 2.48 2.41 2.35 2.37
0.73 0.90 0.88 0.74 0.56 0.57 0.73 1.28 1.12 1.08 1.07 0.94 0.85 1.03 1.14 1.04 0.96 0.89 0.80 0.74 0.75 0.78 0.91 1.10 1.17 1.18 1.30 1.43 1.56 1.77 1.85 1.96 2.14 2.37 2.43 2.44 2.60 2.70 2.68 2.65 2.52 2.53 2.52 2.49
0.89 0.96 1.06 0.88 0.77 0.80 1.34 1.71 1.36 1.21 1.16 1.11 1.21 1.26 1.20 1.05 1.05 0.97 0.86 0.86 0.84 0.87 1.04 1.29 1.42 1.45 1.55 1.70 1.79 1.81 1.88 2.02 2.21 2.39 2.49 2.57 2.76 2.86 2.85 2.79 2.79 2.74 2.65 2.67
1.08 1.29 1.51 1.03 0.98 1.40 1.71 1.44 1.47 1.47 1.42 1.31 1.28 1.23 1.17 1.08 1.10 1.03 0.94 0.98 1.01 1.06 1.24 1.48 1.65 1.63 1.71 1.80 1.81 1.84 1.85 1.99 2.13 2.29 2.30 2.38 2.67 2.78 2.90 2.95 2.89 2.80 2.76 2.60
1.45 1.60 1.46 1.22 1.29 1.44 1.56 1.72 1.64 1.56 1.63 1.43 1.40 1.28 1.17 1.13 1.10 1.06 0.99 1.02 1.08 1.14 1.34 1.61 1.80 1.83 1.91 1.83 1.91 1.95 1.97 2.09 2.22 2.30 2.34 2.44 2.57 2.62 2.72 2.80 2.76 2.64 2.65 2.59
1.72 1.74 1.62 1.51 1.38 1.20 1.32 1.44 1.43 1.44 1.48 1.46 1.39 1.28 1.18 1.10 1.04 1.01 1.03 0.99 1.07 1.19 1.28 1.40 1.61 1.83 1.95 1.98 2.03 2.03 2.06 2.12 2.21 2.32 2.31 2.40 2.53 2.64 2.74 2.82 2.91 2.82 2.68 2.54
1.95 1.83 1.70 1.68 1.53 1.40 1.47 1.53 1.45 1.38 1.37 1.39 1.36 1.28 1.13 1.10 1.08 1.05 1.05 1.01 1.07 1.19 1.25 1.32 1.40 1.53 1.60 1.73 1.85 1.93 2.02 2.08 2.11 2.15 2.24 2.36 2.43 2.55 2.53 2.60 2.64 2.63 2.53 2.50
2.29 1.98 1.82 1.80 1.60 1.44 1.50 1.49 1.58 1.67 1.64 1.41 1.30 1.38 1.30 1.18 1.10 1.10 1.12 1.12 1.13 1.20 1.22 1.24 1.34 1.52 1.60 1.69 1.82 1.98 2.10 2.13 2.09 2.03 2.10 2.16 2.23 2.26 2.29 2.18 2.17 2.10 2.08 2.08
1.96 1.74 1.65 1.62 1.55 1.44 1.44 1.39 1.39 1.54 1.59 1.46 1.40 1.38 1.44 1.37 1.28 1.20 1.14 1.08 1.10 1.16 1.22 1.30 1.36 1.53 1.61 1.63 1.72 1.88 2.01 2.06 2.07 2.04 2.07 2.07 2.15 2.14 2.18 2.12 2.01 1.88 1.80 1.81
1.74 1.72 1.71 1.61 1.47 1.46 1.47 1.39 1.29 1.31 1.40 1.42 1.45 1.47 1.57 1.52 1.41 1.33 1.29 1.20 1.15 1.17 1.16 1.22 1.36 1.40 1.44 1.47 1.52 1.63 1.71 1.83 1.97 2.05 2.09 2.12 2.21 2.29 2.36 2.39 2.29 2.05 1.88 1.81
1.79 1.69 1.61 1.46 1.42 1.46 1.47 1.40 1.33 1.31 1.45 1.61 1.54 1.48 1.53 1.45 1.39 1.32 1.27 1.21 1.19 1.18 1.23 1.26 1.32 1.35 1.41 1.53 1.61 1.64 1.64 1.67 1.69 1.75 1.88 1.98 2.01 2.07 2.19 2.29 2.32 2.22 2.05 1.96
1.90 1.77 1.58 1.42 1.47 1.61 1.66 1.60 1.50 1.40 1.37 1.54 1.59 1.48 1.44 1.36 1.26 1.28 1.31 1.31 1.35 1.36 1.38 1.39 1.43 1.41 1.48 1.62 1.73 1.75 1.69 1.73 1.66 1.60 1.59 1.67 1.75 1.85 1.97 2.12 2.21 2.19 2.12 2.01
1.96 1.90 1.74 1.56 1.49 1.53 1.59 1.60 1.54 1.46 1.37 1.41 1.47 1.50 1.49 1.42 1.29 1.24 1.26 1.28 1.37 1.40 1.43 1.52 1.56 1.57 1.67 1.73 1.75 1.75 1.68 1.67 1.68 1.63 1.63 1.68 1.74 1.82 1.86 1.91 1.97 1.93 1.84 1.77
1.80 1.71 1.63 1.54 1.47 1.46 1.48 1.47 1.44 1.40 1.34 1.35 1.39 1.42 1.45 1.50 1.47 1.41 1.32 1.34 1.37 1.35 1.35 1.40 1.48 1.51 1.67 1.81 1.85 1.80 1.69 1.61 1.55 1.56 1.63 1.69 1.76 1.85 1.90 1.91 1.85 1.76 1.68 1.58
1.70 1.63 1.56 1.46 1.44 1.43 1.43 1.40 1.41 1.36 1.31 1.29 1.40 1.50 1.50 1.52 1.59 1.55 1.47 1.51 1.58 1.58 1.45 1.36 1.44 1.42 1.49 1.74 1.91 1.93 1.78 1.67 1.64 1.64 1.68 1.70 1.71 1.77 1.82 1.80 1.76 1.69 1.59 1.53
1.71 1.68 1.66 1.62 1.52 1.51 1.49 1.40 1.39 1.37 1.34 1.37 1.45 1.48 1.55 1.53 1.59 1.66 1.65 1.59 1.58 1.66 1.65 1.53 1.41 1.36 1.36 1.59 1.93 1.88 1.83 1.73 1.64 1.61 1.63 1.65 1.71 1.80 1.79 1.72 1.64 1.62 1.64 1.64
1.85 1.87 1.82 1.74 1.64 1.54 1.44 1.35 1.38 1.43 1.40 1.45 1.54 1.55 1.58 1.53 1.49 1.63 1.78 1.61 1.48 1.59 1.63 1.59 1.40 1.31 1.33 1.55 1.85 1.85 1.83 1.82 1.71 1.61 1.61 1.65 1.67 1.75 1.76 1.73 1.66 1.57 1.58 1.61
2.17 2.15 1.96 1.74 1.66 1.53 1.43 1.37 1.37 1.38 1.40 1.49 1.49 1.53 1.68 1.68 1.62 1.62 1.60 1.59 1.50 1.57 1.54 1.48 1.39 1.33 1.31 1.41 1.54 1.65 1.65 1.62 1.56 1.49 1.44 1.49 1.57 1.71 1.74 1.77 1.77 1.69 1.67 1.68
2.23 2.11 1.96 1.75 1.68 1.51 1.33 1.30 1.30 1.33 1.41 1.50 1.58 1.67 1.89 1.91 1.81 1.85 1.66 1.36 1.30 1.42 1.38 1.31 1.35 1.32 1.27 1.24 1.40 1.50 1.47 1.47 1.43 1.37 1.34 1.38 1.47 1.59 1.70 1.68 1.69 1.70 1.65 1.59
2.02 1.91 1.80 1.65 1.66 1.61 1.52 1.43 1.38 1.41 1.45 1.47 1.53 1.70 1.96 2.08 1.87 1.58 1.46 1.39 1.33 1.31 1.24 1.27 1.29 1.27 1.26 1.21 1.36 1.47 1.45 1.44 1.44 1.42 1.36 1.41 1.46 1.53 1.59 1.57 1.56 1.55 1.52 1.52
1.98 1.84 1.71 1.70 1.82 1.83 1.70 1.59 1.56 1.61 1.62 1.58 1.56 1.65 1.83 2.07 2.04 1.61 1.30 1.19 1.25 1.23 1.17 1.27 1.32 1.31 1.18 1.12 1.21 1.38 1.49 1.53 1.54 1.49 1.44 1.53 1.58 1.62 1.63 1.61 1.63 1.61 1.54 1.49
1.90 1.83 1.79 1.79 1.78 1.82 1.81 1.81 1.88 1.94 1.98 2.04 1.98 1.85 1.91 2.02 1.91 1.65 1.35 1.15 1.16 1.24 1.18 1.26 1.33 1.35 1.24 1.21 1.25 1.35 1.45 1.56 1.58 1.55 1.52 1.53 1.56 1.64 1.68 1.66 1.64 1.61 1.52 1.43
1.82 1.73 1.71 1.71 1.71 1.78 1.90 2.06 2.16 2.19 2.25 2.38 2.38 2.09 1.98 2.02 1.98 1.80 1.56 1.41 1.40 1.42 1.40 1.36 1.28 1.25 1.31 1.40 1.40 1.34 1.39 1.50 1.52 1.54 1.61 1.57 1.55 1.55 1.57 1.54 1.50 1.45 1.34 1.24